GW1112 Weather Reports


time (UTC)temp
C
wind
direction
speed
KPH
gust
KPH
rain 1hr
cm
rain 24hr
cm
rain mn
cm
humidity
%
barometer
mb
20260507105212 3 244 0.0 0.0 0.00 0.00 0.00 91 1012.5
20260507104710 3 244 0.0 0.0 0.00 0.00 0.00 92 1012.5
20260507104206 2 242 0.0 0.0 0.00 0.00 0.00 94 1012.4
20260507103702 2 245 0.0 0.0 0.00 0.00 0.00 94 1012.6
20260507103159 2 242 0.0 0.0 0.00 0.00 0.00 94 1012.5
20260507102655 2 238 0.0 0.0 0.00 0.00 0.00 94 1012.3
20260507102152 2 227 0.0 0.0 0.00 0.00 0.00 94 1012.5
20260507101647 2 233 0.0 0.0 0.00 0.00 0.00 93 1012.4
20260507101143 2 244 0.0 0.0 0.00 0.00 0.00 93 1012.1
20260507100641 2 240 0.0 0.0 0.00 0.00 0.00 92 1012.3
20260507100140 2 243 0.0 0.0 0.00 0.00 0.00 90 1012.3
20260507095637 2 235 0.0 0.0 0.00 0.00 0.00 92 1012.3
20260507095133 2 258 1.6 1.6 0.00 0.00 0.00 92 1012.2
20260507094629 2 259 0.0 1.6 0.00 0.00 0.00 92 1012.2
20260507094126 2 244 0.0 0.0 0.00 0.00 0.00 91 1012.1
20260507093623 3 240 0.0 0.0 0.00 0.00 0.00 90 1012.0
20260507093123 3 229 0.0 0.0 0.00 0.00 0.00 88 1012.0
20260507092618 3 269 1.6 1.6 0.00 0.00 0.00 90 1012.1
20260507092115 3 253 0.0 0.0 0.00 0.00 0.00 90 1012.1
20260507091612 3 229 0.0 0.0 0.00 0.00 0.00 89 1012.2
20260507091108 3 240 0.0 0.0 0.00 0.00 0.00 88 1012.2
20260507090604 4 247 0.0 0.0 0.00 0.00 0.00 87 1012.1
20260507090101 5 286 3.2 3.2 0.00 0.00 0.00 85 1012.0
20260507085558 5 244 0.0 0.0 0.00 0.00 0.00 83 1012.1
20260507085054 5 210 1.6 1.6 0.00 0.00 0.00 82 1011.8
20260507084551 5 244 0.0 0.0 0.00 0.00 0.00 84 1011.9
20260507084048 5 243 0.0 0.0 0.00 0.00 0.00 83 1012.0
20260507083544 5 236 0.0 0.0 0.00 0.00 0.00 82 1012.0
20260507083042 5 233 0.0 0.0 0.00 0.00 0.00 79 1012.2
20260507082538 6 243 0.0 0.0 0.00 0.00 0.00 80 1012.3
20260507082034 6 243 0.0 0.0 0.00 0.00 0.00 79 1012.2
20260507081530 6 234 0.0 0.0 0.00 0.00 0.00 77 1012.3
20260507081028 7 232 0.0 0.0 0.00 0.00 0.00 73 1012.0
20260507080523 7 235 0.0 0.0 0.00 0.00 0.00 74 1012.1
20260507080020 7 250 1.6 3.2 0.00 0.00 0.00 73 1012.2
20260507075515 7 228 0.0 0.0 0.00 0.00 0.00 76 1012.1
20260507075012 7 246 0.0 0.0 0.00 0.00 0.00 75 1012.2
20260507074509 7 244 0.0 0.0 0.00 0.00 0.00 75 1012.1
20260507074008 7 228 0.0 0.0 0.00 0.00 0.00 75 1012.1
20260507073503 7 258 1.6 1.6 0.00 0.00 0.00 73 1012.2
20260507072959 7 248 0.0 0.0 0.00 0.00 0.00 76 1012.2
20260507072457 7 244 0.0 0.0 0.00 0.00 0.00 78 1012.0
20260507071954 7 248 0.0 0.0 0.00 0.00 0.00 76 1012.1
20260507071451 7 249 0.0 0.0 0.00 0.00 0.00 78 1012.1
20260507070948 7 229 1.6 1.6 0.00 0.00 0.00 75 1012.0
20260507070445 7 252 0.0 0.0 0.00 0.00 0.00 78 1012.1
20260507065942 7 236 0.0 0.0 0.00 0.00 0.00 78 1012.3
20260507065439 6 242 0.0 0.0 0.00 0.00 0.00 79 1012.4
20260507064936 6 239 0.0 0.0 0.00 0.00 0.00 80 1012.3
20260507064434 7 248 0.0 0.0 0.00 0.00 0.00 80 1012.3
20260507063932 7 231 0.0 0.0 0.00 0.00 0.00 78 1012.3
20260507063428 7 243 0.0 0.0 0.00 0.00 0.00 77 1012.0
20260507062925 7 251 1.6 1.6 0.00 0.00 0.00 76 1012.3
20260507062423 7 246 3.2 4.8 0.00 0.00 0.00 74 1012.4
20260507061920 7 257 1.6 1.6 0.00 0.00 0.00 73 1012.1
20260507061418 7 245 0.0 0.0 0.00 0.00 0.00 76 1012.4
20260507060916 7 251 1.6 3.2 0.00 0.00 0.00 75 1012.4
20260507060412 7 246 0.0 0.0 0.00 0.00 0.00 78 1012.6
20260507055909 8 243 0.0 0.0 0.00 0.00 0.00 75 1012.5
20260507055404 8 248 0.0 0.0 0.00 0.00 0.00 74 1012.3
20260507054901 8 222 4.8 6.4 0.00 0.00 0.00 72 1012.3
20260507054357 8 241 1.6 1.6 0.00 0.00 0.00 70 1012.3
20260507053855 8 350 8.0 11.3 0.00 0.00 0.00 69 1012.3
20260507053352 8 297 4.8 6.4 0.00 0.00 0.00 69 1012.2
20260507052851 8 326 3.2 4.8 0.00 0.00 0.00 69 1012.4
20260507052347 8 253 0.0 3.2 0.00 0.00 0.00 74 1012.5
20260507051845 8 237 0.0 0.0 0.00 0.00 0.00 73 1012.4
20260507051343 8 263 1.6 4.8 0.00 0.00 0.00 72 1012.4
20260507050839 8 232 0.0 1.6 0.00 0.00 0.00 71 1012.5
20260507050336 8 254 1.6 3.2 0.00 0.00 0.00 72 1012.5
20260507045833 8 243 0.0 0.0 0.00 0.00 0.00 75 1012.4
20260507045329 8 253 1.6 3.2 0.00 0.00 0.00 74 1012.5
20260507044826 8 250 0.0 0.0 0.00 0.00 0.00 75 1012.4
20260507044323 8 265 4.8 4.8 0.00 0.00 0.00 71 1012.6
20260507043819 8 268 6.4 6.4 0.00 0.00 0.00 71 1012.8
20260507043316 9 229 3.2 3.2 0.00 0.00 0.00 67 1012.7
20260507042812 9 257 3.2 4.8 0.00 0.00 0.00 69 1012.5
20260507042307 9 249 1.6 3.2 0.00 0.00 0.00 67 1012.4
20260507041805 9 203 6.4 9.7 0.00 0.00 0.00 68 1012.1
20260507041301 9 223 1.6 1.6 0.00 0.00 0.00 67 1012.3
20260507040758 9 279 4.8 4.8 0.00 0.00 0.00 70 1012.4
20260507040254 9 253 1.6 3.2 0.00 0.00 0.00 69 1012.1
20260507035751 9 284 4.8 4.8 0.00 0.64 0.64 68 1012.3
20260507035246 10 256 0.0 1.6 0.00 0.64 0.64 67 1012.4
20260507034744 10 292 3.2 3.2 0.00 0.64 0.64 65 1012.2
20260507034240 10 259 1.6 1.6 0.00 0.64 0.64 67 1012.3
20260507033739 10 268 3.2 3.2 0.00 0.64 0.64 65 1012.1
20260507033236 10 259 0.0 1.6 0.00 0.64 0.64 67 1012.0
20260507032733 10 254 0.0 0.0 0.00 0.64 0.64 66 1011.9
20260507032229 10 253 8.0 9.7 0.00 0.64 0.64 67 1012.1
20260507031726 10 265 8.0 11.3 0.00 0.64 0.64 66 1012.0
20260507031223 10 272 4.8 4.8 0.00 0.64 0.64 68 1012.1
20260507030720 10 255 1.6 3.2 0.00 0.64 0.64 73 1012.0
20260507030217 10 261 6.4 11.3 0.00 0.64 0.64 78 1011.9
20260507025714 10 298 3.2 3.2 0.00 0.64 0.64 84 1012.0
20260507025211 10 274 3.2 3.2 0.00 0.64 0.64 83 1011.7
20260507024709 10 249 3.2 4.8 0.00 0.64 0.64 84 1011.8
20260507024206 10 259 6.4 6.4 0.00 0.64 0.64 83 1011.7
20260507023701 10 328 8.0 9.7 0.00 0.64 0.64 83 1011.5
20260507023159 10 254 1.6 3.2 0.00 0.64 0.64 83 1011.4
20260507022656 10 241 0.0 1.6 0.00 0.64 0.64 83 1011.5
20260507022152 10 292 3.2 4.8 0.00 0.64 0.64 83 1011.8
20260507021648 10 245 0.0 1.6 0.00 0.64 0.64 83 1011.7
20260507021143 10 264 1.6 3.2 0.00 0.64 0.64 83 1011.7
20260507020642 10 247 0.0 0.0 0.00 0.64 0.64 83 1011.6
20260507020138 10 235 0.0 0.0 0.00 0.64 0.64 84 1011.6
20260507015637 10 246 0.0 0.0 0.00 0.64 0.64 83 1012.0
20260507015133 10 267 4.8 6.4 0.00 0.64 0.64 83 1012.0
20260507014630 10 288 1.6 3.2 0.00 0.64 0.64 86 1011.9
20260507014126 10 254 0.0 0.0 0.00 0.64 0.64 86 1012.0
20260507013623 10 282 3.2 3.2 0.00 0.64 0.64 85 1012.1
20260507013120 10 238 0.0 0.0 0.00 0.64 0.64 85 1011.9
20260507012617 11 259 0.0 1.6 0.00 0.64 0.64 88 1012.0
20260507012112 10 259 0.0 0.0 0.00 0.64 0.64 90 1011.9
20260507011611 10 252 0.0 0.0 0.00 0.64 0.64 91 1012.0
20260507011107 11 233 0.0 0.0 0.00 0.64 0.64 94 1012.0
20260507010602 11 249 0.0 0.0 0.00 0.64 0.64 92 1011.8
20260507010058 11 249 0.0 0.0 0.00 0.64 0.64 92 1011.7
20260507005556 11 253 0.0 0.0 0.00 0.64 0.64 92 1011.7
20260507005051 11 266 3.2 3.2 0.00 0.64 0.64 92 1012.0
20260507004549 11 251 0.0 0.0 0.00 0.64 0.64 92 1011.9
20260507004046 11 184 0.0 0.0 0.00 0.64 0.64 92 1012.1
20260507003542 11 249 0.0 0.0 0.00 0.64 0.64 91 1011.8
20260507003037 11 267 0.0 1.6 0.00 0.64 0.64 91 1011.6
20260507002534 11 257 1.6 3.2 0.00 0.64 0.64 91 1011.4
20260507002030 11 254 4.8 6.4 0.00 0.64 0.64 91 1011.4
20260507001527 11 270 3.2 3.2 0.00 0.64 0.64 91 1011.3
20260507001025 11 241 0.0 0.0 0.00 0.64 0.64 91 1011.3
20260507000520 11 245 0.0 0.0 0.00 0.64 0.64 91 1010.8
20260507000016 11 240 3.2 3.2 0.00 0.64 0.64 91 1010.9
20260506235514 11 233 3.2 3.2 0.00 0.64 0.64 90 1010.8
20260506235009 11 252 1.6 3.2 0.00 0.64 0.64 90 1010.7
20260506234507 11 249 0.0 0.0 0.00 0.64 0.64 91 1010.7
20260506234004 11 242 0.0 1.6 0.00 0.64 0.64 90 1010.3
20260506233500 11 260 1.6 1.6 0.00 0.64 0.64 90 1010.4
20260506232956 11 248 1.6 4.8 0.00 0.64 0.64 90 1010.2
20260506232453 12 236 3.2 3.2 0.00 0.64 0.64 90 1010.2
20260506231944 12 264 1.6 1.6 0.00 0.64 0.64 90 1010.1
20260506231441 12 242 1.6 1.6 0.00 0.64 0.64 90 1010.1
20260506230938 12 242 3.2 3.2 0.00 0.64 0.64 90 1009.9
20260506230434 12 247 1.6 1.6 0.00 0.64 0.64 90 1010.1
20260506225931 12 258 4.8 6.4 0.00 0.64 0.64 89 1010.3
20260506225429 12 280 6.4 6.4 0.00 0.64 0.64 89 1010.1
20260506224925 12 332 1.6 1.6 0.00 0.64 0.64 89 1010.1
20260506224422 13 273 6.4 6.4 0.00 0.64 0.64 89 1009.7
20260506223918 13 251 1.6 1.6 0.00 0.64 0.64 88 1009.7
20260506223414 13 260 6.4 6.4 0.00 0.64 0.64 88 1009.7
20260506222912 13 249 0.0 0.0 0.00 0.64 0.64 89 1009.6
20260506222409 13 246 0.0 1.6 0.00 0.64 0.64 89 1009.5
20260506221906 13 262 6.4 9.7 0.00 0.64 0.64 88 1009.4
20260506221402 13 260 6.4 6.4 0.00 0.64 0.64 87 1009.3
20260506220900 13 270 4.8 4.8 0.00 0.64 0.64 87 1009.4
20260506220355 13 248 0.0 1.6 0.00 0.64 0.64 89 1009.2
20260506215853 13 255 6.4 9.7 0.00 0.64 0.64 89 1009.2
20260506215348 14 222 1.6 3.2 0.00 0.64 0.64 89 1009.3
20260506214844 14 278 4.8 4.8 0.00 0.64 0.64 90 1009.1
20260506214341 14 270 6.4 6.4 0.00 0.64 0.64 89 1008.9
20260506213839 14 285 8.0 11.3 0.00 0.64 0.64 89 1008.8
20260506213336 14 263 8.0 11.3 0.00 0.64 0.64 89 1008.8
20260506212833 15 243 8.0 12.9 0.00 0.64 0.64 89 1008.6
20260506212329 15 262 4.8 6.4 0.00 0.64 0.64 89 1008.5
20260506211824 15 264 6.4 6.4 0.00 0.64 0.64 90 1008.3
20260506211320 15 267 4.8 4.8 0.00 0.64 0.64 90 1008.4
20260506210818 15 272 6.4 6.4 0.00 0.64 0.64 90 1008.4
20260506210314 15 261 8.0 9.7 0.00 0.64 0.64 89 1008.2
20260506205812 15 239 8.0 11.3 0.00 0.64 0.64 90 1008.2
20260506205307 15 255 6.4 9.7 0.00 0.64 0.64 90 1008.1
20260506204804 15 266 8.0 9.7 0.00 0.64 0.64 91 1008.1
20260506204302 15 266 8.0 9.7 0.00 0.64 0.64 92 1008.2
20260506203759 15 260 6.4 9.7 0.00 0.64 0.64 92 1008.1
20260506203257 15 241 6.4 6.4 0.00 0.64 0.64 93 1008.0
20260506202754 15 237 3.2 4.8 0.00 0.64 0.64 94 1008.1
20260506202251 15 264 4.8 4.8 0.00 0.64 0.64 93 1008.0
20260506201747 15 278 6.4 6.4 0.00 0.64 0.64 93 1007.9
20260506201243 15 252 6.4 6.4 0.00 0.64 0.64 93 1007.8
20260506200741 16 266 3.2 3.2 0.00 0.64 0.64 94 1007.6
20260506200237 16 264 6.4 6.4 0.00 0.64 0.64 95 1007.6
20260506195733 15 285 4.8 4.8 0.00 0.64 0.64 95 1007.3
20260506195230 16 293 6.4 6.4 0.00 0.64 0.64 96 1007.4
20260506194727 16 238 0.0 0.0 0.00 0.64 0.64 97 1007.3
20260506194224 16 248 0.0 0.0 0.00 0.64 0.64 97 1007.1
20260506193722 16 246 0.0 0.0 0.00 0.64 0.64 98 1007.2
20260506193218 16 236 0.0 0.0 0.00 0.64 0.64 98 1007.2
20260506192715 16 246 0.0 0.0 0.00 0.64 0.64 99 1007.2
20260506192211 16 238 0.0 0.0 0.00 0.64 0.64 99 1007.1
20260506191703 16 239 0.0 0.0 0.00 0.64 0.64 99 1007.4
20260506191158 16 247 0.0 0.0 0.00 0.64 0.64 99 1007.3
20260506190656 16 238 0.0 0.0 0.00 0.64 0.64 99 1007.2
20260506190152 15 257 0.0 0.0 0.00 0.64 0.64 99 1007.2
20260506185650 16 228 0.0 0.0 0.00 0.64 0.64 99 1007.1
20260506185146 15 245 0.0 0.0 0.00 0.64 0.64 99 1007.1
20260506184639 15 224 0.0 0.0 0.00 0.64 0.64 99 1007.3
20260506184136 15 238 0.0 0.0 0.00 0.64 0.64 99 1007.3
20260506183632 15 254 6.4 9.7 0.00 0.64 0.64 99 1007.2
20260506183128 15 273 4.8 6.4 0.00 0.64 0.64 99 1007.3
20260506182626 15 239 0.0 1.6 0.13 0.64 0.64 99 1007.3
20260506182122 15 266 6.4 6.4 0.13 0.64 0.64 99 1007.4
20260506181620 15 274 3.2 4.8 0.00 0.61 0.61 99 1007.2
20260506181117 15 268 4.8 4.8 0.00 0.61 0.61 99 1007.2
20260506180614 15 258 3.2 3.2 0.00 0.61 0.61 99 1007.1
20260506180110 15 255 1.6 3.2 0.00 0.61 0.61 99 1007.3
20260506175607 16 249 0.0 1.6 0.00 0.61 0.61 99 1007.3
20260506175103 16 241 0.0 0.0 0.00 0.61 0.61 99 1007.2
20260506174602 16 237 0.0 0.0 0.00 0.61 0.61 99 1007.0
20260506174058 15 239 0.0 0.0 0.00 0.61 0.61 99 1007.2
20260506173556 15 250 0.0 0.0 0.00 0.61 0.61 99 1007.0
20260506173052 16 263 0.0 1.6 0.00 0.61 0.61 99 1007.2
20260506172550 16 212 1.6 1.6 0.00 0.61 0.61 99 1007.1
20260506172045 16 240 0.0 0.0 0.00 0.61 0.61 99 1007.0
20260506171543 16 235 0.0 0.0 0.00 0.61 0.61 99 1007.0
20260506171041 17 245 0.0 0.0 0.00 0.61 0.61 99 1006.9
20260506170538 17 241 0.0 1.6 0.00 0.61 0.61 99 1006.9
20260506170035 16 242 0.0 0.0 0.00 0.61 0.61 99 1007.0
20260506165533 16 211 3.2 4.8 0.00 0.61 0.61 99 1006.9
20260506165029 16 208 0.0 0.0 0.00 0.61 0.61 99 1007.0
20260506164526 16 258 3.2 3.2 0.00 0.61 0.61 99 1007.0
20260506164024 16 236 0.0 0.0 0.00 0.61 0.61 99 1007.0
20260506163519 16 248 0.0 1.6 0.00 0.61 0.61 99 1007.2
20260506163015 15 255 1.6 1.6 0.00 0.61 0.61 99 1007.3
20260506162512 15 255 0.0 1.6 0.00 0.61 0.61 99 1007.1
20260506162009 16 240 0.0 0.0 0.00 0.61 0.61 99 1007.1
20260506161506 15 241 0.0 0.0 0.00 0.61 0.61 99 1007.1
20260506161003 15 235 0.0 0.0 0.00 0.61 0.61 99 1007.2
20260506160501 15 226 0.0 0.0 0.00 0.61 0.61 99 1007.2
20260506155958 14 236 0.0 0.0 0.18 0.61 0.61 99 1007.4
20260506155456 14 245 0.0 0.0 0.18 0.61 0.61 99 1007.4
20260506153622 13 263 3.2 4.8 0.00 0.58 0.58 99 1007.0
20260506153119 13 268 8.0 9.7 0.00 0.58 0.58 99 1007.0
20260506152616 13 248 0.0 0.0 0.00 0.58 0.58 99 1007.1
20260506152114 13 244 1.6 3.2 0.00 0.58 0.58 99 1007.0
20260506151613 13 241 0.0 0.0 0.00 0.58 0.58 99 1006.9
20260506151109 13 247 0.0 0.0 0.00 0.58 0.58 99 1006.8
20260506150606 13 243 1.6 3.2 0.00 0.58 0.58 99 1006.6
20260506145600 13 239 0.0 0.0 0.00 0.58 0.58 99 1006.6
20260506145057 13 243 0.0 0.0 0.00 0.58 0.58 99 1006.9
20260506144554 13 237 0.0 0.0 0.00 0.58 0.58 99 1006.6
20260506144051 13 231 0.0 0.0 0.00 0.58 0.58 99 1006.8
20260506143548 13 240 0.0 0.0 0.00 0.58 0.58 99 1006.9
20260506143047 13 196 3.2 4.8 0.13 0.58 0.58 99 1006.6
20260506142544 13 221 0.0 0.0 0.13 0.58 0.58 99 1006.6
20260506142042 13 230 1.6 1.6 0.13 0.58 0.58 99 1006.6
20260506141539 13 233 1.6 1.6 0.00 0.56 0.56 99 1006.8
20260506141038 12 241 0.0 0.0 0.18 0.56 0.56 99 1006.8
20260506140535 13 239 0.0 0.0 0.30 0.56 0.56 99 1006.6
20260506140032 13 237 1.6 1.6 0.13 0.53 0.53 99 1006.9
20260506135529 13 242 0.0 0.0 0.00 0.51 0.51 99 1006.8
20260506135025 13 235 0.0 0.0 0.18 0.51 0.51 99 1006.9
20260506134521 13 235 0.0 0.0 0.18 0.51 0.51 99 1006.9
20260506134017 13 235 0.0 0.0 0.18 0.48 0.48 99 1006.8
20260506133515 12 241 0.0 0.0 0.18 0.48 0.48 99 1007.0
20260506133012 12 253 0.0 0.0 0.00 0.46 0.46 99 1006.8
20260506132509 12 228 0.0 0.0 0.00 0.46 0.46 99 1006.9
20260506132006 12 240 0.0 0.0 0.13 0.46 0.46 99 1007.0
20260506131503 12 244 0.0 0.0 0.13 0.46 0.46 99 1007.3
20260506130959 12 231 0.0 0.0 0.13 0.46 0.46 99 1006.9
20260506130456 12 231 3.2 4.8 0.00 0.43 0.43 99 1007.0
20260506125954 12 241 0.0 0.0 0.00 0.43 0.43 99 1006.8
20260506125452 12 236 0.0 0.0 0.00 0.43 0.43 99 1007.1
20260506124949 12 230 0.0 1.6 0.18 0.43 0.43 99 1007.1
20260506124447 12 237 0.0 0.0 0.18 0.43 0.43 99 1006.9
20260506123945 12 230 0.0 0.0 0.13 0.41 0.41 99 1007.2
20260506123443 12 242 0.0 0.0 0.13 0.41 0.41 99 1007.0
20260506122940 12 252 4.8 4.8 0.30 0.38 0.38 99 1007.1
20260506122437 12 242 0.0 0.0 0.48 0.38 0.38 99 1007.1
20260506121935 12 233 0.0 0.0 0.30 0.36 0.36 99 1007.3
20260506121432 12 233 0.0 0.0 0.30 0.33 0.33 99 1007.6
20260506120928 12 231 0.0 0.0 0.30 0.30 0.30 99 1007.6
20260506120426 12 224 0.0 0.0 0.30 0.28 0.28 99 1007.9
20260506115923 12 231 0.0 0.0 0.30 0.25 0.25 99 1007.8
20260506115421 12 231 0.0 0.0 0.36 0.23 0.23 99 1007.8
20260506114919 12 230 0.0 0.0 0.30 0.20 0.20 99 1008.0
20260506114416 12 230 0.0 0.0 0.30 0.20 0.20 99 1008.0
20260506113915 12 231 0.0 0.0 0.18 0.15 0.15 99 1008.1
20260506113412 12 231 0.0 0.0 0.18 0.15 0.15 99 1007.8
20260506112909 12 230 0.0 0.0 0.13 0.13 0.13 99 1007.6
20260506112407 12 230 0.0 0.0 0.13 0.13 0.13 99 1007.6
20260506111904 12 230 0.0 0.0 0.00 0.10 0.10 99 1007.2
20260506111402 12 230 0.0 0.0 0.00 0.10 0.10 99 1007.2
20260506110858 12 229 0.0 0.0 0.00 0.10 0.10 99 1007.1
20260506110355 12 229 0.0 0.0 0.00 0.10 0.10 99 1007.1
20260506105847 12 229 0.0 0.0 0.00 0.10 0.10 99 1007.2